Regional Weather Roundup
Issued by NWS Newport/Morehead, NC

Current Version | Previous Version | Text Only | Print | Product List | Glossary On
Versions: 1 2 3 4 5 6 7 8 9 10 11 12 13 14 15 16 17 18 19 20 21 22 23 24 25 26 27 28 29 30 31 32 33 34 35 36 37 38 39 40 41 42 43 44 45 46 47 48 49 50
000 ASUS42 KMHX 292325 RWRMHX WEATHER ROUNDUP FOR EASTERN NORTH CAROLINA NATIONAL WEATHER SERVICE NEWPORT/MOREHEAD CITY NC 700 PM EDT WED MAR 29 2017 NOTE: "FAIR" INDICATES FEW OR NO CLOUDS BELOW 12,000 FEET WITH NO SIGNIFICANT WEATHER AND/OR OBSTRUCTIONS TO VISIBILITY NCZ015>017-031-032-045>047-102-103-300000- NORTH COAST CITY SKY/WX TMP DP RH WIND PRES REMARKS EDENTON NOT AVBL ELIZABETH CITY PTCLDY 53 46 77 E8 30.11R KITTY HAWK NOT AVBL MANTEO CLEAR 49 46 87 E9 30.12R $$ NCZ045>047-081-094-103-104-300000- CENTRAL COAST CITY SKY/WX TMP DP RH WIND PRES REMARKS FRISCO CLEAR 54 46 74 VRB7 30.10R $$ NCZ095-097-098-100-101-300000- SOUTHERN COAST CITY SKY/WX TMP DP RH WIND PRES REMARKS BEAUFORT MOCLDY 61 53 75 E9 30.08R CEDAR ISLAND NOT AVBL JACKSONVILLE PTCLDY 64 56 75 SE8 30.06R PINEY ISLAND CLEAR N/A N/A N/A E13 30.09R WILMINGTON CLEAR 63 55 75 E10 30.07R $$ NCZ011>013-027>030-043-044-078>080-089-090>093-098-300000- COASTAL PLAIN CITY SKY/WX TMP DP RH WIND PRES REMARKS AHOSKIE NOT AVBL CLINTON CLEAR 70 56 62 E5 30.06R ELIZABETHTOWN CLEAR 73 56 54 NE3 30.04R GOLDSBORO CLEAR 68 55 62 E7 30.05R GREENVILLE CLEAR 66 54 63 E5 30.09R HAVELOCK MOCLDY 61 52 72 NE6 30.09R KENANSVILLE CLEAR 68 55 64 CALM 30.07 KINSTON CLEAR 68 54 60 NE3 30.07R NEW BERN CLOUDY 62 55 77 SE8 30.09R RICHLANDS CLEAR 67 56 67 NE9 30.07R ROCKY MOUNT CLOUDY 68 54 60 CALM 30.07R WASHINGTON CLEAR 62 53 70 E7 30.08R WHITEVILLE MOCLDY 72 59 64 E3 30.03R $$ AMZ130-135-150-152-154-156-158-170-250-252-270-ANZ085-086-088-633-658-670-300000- MARINE OBSERVATIONS STATION/POSITION TIME TEMP WIND PRES WAVE SWELL AIR SEA DIR/SP/G HT/PER HT/PER (UTC) (F) (DEG/KT/KT) (MB) (FT/S) (FT/S) CHESAPEAKE LIGHT NOT AVBL 64 E VA BEACH 2250 50 50 50/ 10/ 12 1019.1 5/ 7 5/ 7 DUCK 2254 49 51 60/ 12/ 13 1019.3 2 E DUCK 2300 51 N/A 4/ 6 2/11 OREGON INLET 2254 49 57 40/ 9/ 12 1019.5 13E OREGON INLT 2248 50 N/A 5/ 9 3/ 9 HATTERAS CG 2254 54 62 30/ 10/ 15 1019.1 DIAMOND BUOY 2250 58 74 20/ 19/ 25 1018.7 6/10 3/10 CAPE LOOKOUT 2300 59 50/ 19/ 21 1018.4 BEAUFORT LAB 2254 60 63 60/ 8/ 13 1017.7 30 SE NEW RVR IN 2308 61 70/ 16/ 19 1018.1 30 SE NEW RVR IN 2313 64 N/A 6/ 9 2/11 27 SE WRIGHTSVLE 2308 65 74 100/ 17/ 23 1016.7 5 SE WRIGHTSVLE 2308 61 59 90/ 10/ 17 1017.8 225 S CAPE HAT 2250 72 72 20/ 12/ 14 1015.5 6/10 5/10 41 SE CHARLESTON 2250 71 70 70/ 12/ 14 1015.5 4/10 3/10 $$

USA.gov is the U.S. government's official web portal to all federal, state and local government web resources and services.